This is the latest recevied weather packets stored in our database for station/object DL5TW-13. If no packets are shown the sender has not sent any weather packets the latest 10 day(s).
| Time | Temp. | Humidity | Pressure | Rain* | Wind** | Luminosity | Snow |
|---|---|---|---|---|---|---|---|
| 1777899217 | 27.78° C | 36% | 1008.1 hPa | 0 mm | - | - | - |
| 1777898916 | 27.22° C | 37% | 1008.2 hPa | 0 mm | - | - | - |
| 1777898616 | 26.11° C | 38% | 1008.3 hPa | 0 mm | - | - | - |
| 1777898316 | 25.56° C | 38% | 1008.2 hPa | 0 mm | - | - | - |
| 1777898016 | 25.56° C | 38% | 1008.4 hPa | 0 mm | - | - | - |
| 1777897715 | 25.56° C | 38% | 1008.2 hPa | 0 mm | - | - | - |
| 1777897415 | 26.11° C | 37% | 1008.2 hPa | 0 mm | - | - | - |
| 1777897115 | 26.11° C | 38% | 1008.1 hPa | 0 mm | - | - | - |
| 1777896815 | 26.11° C | 38% | 1008.2 hPa | 0 mm | - | - | - |
| 1777896514 | 26.11° C | 38% | 1008.3 hPa | 0 mm | - | - | - |
| 1777896214 | 25.56° C | 37% | 1008.3 hPa | 0 mm | - | - | - |
| 1777895914 | 25.56° C | 37% | 1008.3 hPa | 0 mm | - | - | - |
| 1777895613 | 26.11° C | 36% | 1008.4 hPa | 0 mm | - | - | - |
| 1777895313 | 26.67° C | 36% | 1008.4 hPa | 0 mm | - | - | - |
| 1777895013 | 26.67° C | 35% | 1008.3 hPa | 0 mm | - | - | - |
| 1777894712 | 27.22° C | 35% | 1008.3 hPa | 0 mm | - | - | - |
| 1777894412 | 27.22° C | 35% | 1008.4 hPa | 0 mm | - | - | - |
| 1777894112 | 27.22° C | 35% | 1008.4 hPa | 0 mm | - | - | - |
| 1777893812 | 27.22° C | 35% | 1008.4 hPa | 0 mm | - | - | - |
| 1777893511 | 26.67° C | 36% | 1008.4 hPa | 0 mm | - | - | - |
| 1777893211 | 26.11° C | 36% | 1008.5 hPa | 0 mm | - | - | - |
| 1777892911 | 26.11° C | 36% | 1008.5 hPa | 0 mm | - | - | - |
| 1777892610 | 26.67° C | 36% | 1008.6 hPa | 0 mm | - | - | - |
| 1777892310 | 26.67° C | 36% | 1008.7 hPa | 0 mm | - | - | - |
| 1777892010 | 26.67° C | 36% | 1008.8 hPa | 0 mm | - | - | - |
* Rain latest hour (hover to see other rain measurements)
** Current wind speed in m/s (hover to see current wind gust speed)